Regional Weather Roundup
Issued by NWS

Home | Current Version | Previous Version | Text Only | Print | Product List | Glossary Off
Versions: 1 2 3 4 5 6 7 8 9 10 11 12 13 14 15 16 17 18 19 20 21 22 23 24 25 26 27 28 29 30 31 32 33 34 35 36 37 38 39 40 41 42 43 44 45 46 47 48 49 50

000
ASUS43 KLOT 211310
RWRIL

ILLINOIS REGIONAL WEATHER ROUNDUP
NATIONAL WEATHER SERVICE CHICAGO/ROMEOVILLE IL
800 AM CDT MON APR 21 2014

NOTE: "FAIR" INDICATES FEW OR NO CLOUDS BELOW 12,000 FEET WITH NO
SIGNIFICANT WEATHER AND/OR OBSTRUCTIONS TO VISIBILITY.

* THESE STATIONS ARE NOT UNDER NWS QUALITY CONTROL. THEY ALSO MAY NOT
  REPORT WEATHER SUCH AS PRECIPITATION OR FOG.

ILZ001-002-007-009-015-016-024-211400-
NORTHWEST ILLINOIS

CITY           SKY/WX    TMP DP  RH WIND       PRES   REMARKS
MOLINE         CLOUDY    63  49  60 W7        29.94R
STERLING*      CLOUDY    59  46  63 CALM      29.94R
SAVANNA*       CLOUDY    61  46  57 S5        29.92F
$$

ILZ003-004-008-010-011-017-018-211400-
NORTH CENTRAL ILLINOIS

CITY           SKY/WX    TMP DP  RH WIND       PRES   REMARKS
ROCKFORD       CLOUDY    61  45  55 S7        29.94S
FREEPORT*      CLOUDY    62  49  62 S8        29.94S
ROCHELLE*      PTSUNNY   59  46  60 SW6       29.94S
DE KALB*       PTSUNNY   56  44  64 S8        29.95F
PERU*          CLOUDY    61  46  58 CALM      29.94S
$$

ILZ005-006-012>014-019>023-211400-
NORTHEAST ILLINOIS

CITY           SKY/WX    TMP DP  RH WIND       PRES   REMARKS
CHICAGO-OHARE  PTSUNNY   63  43  48 S7        29.94F
CHICAGO-MIDWAY PTSUNNY   62  43  49 S9        29.95F
AURORA         PTSUNNY   58  46  64 SE7       29.95F
LANSING*       PTSUNNY   61  43  51 S6        29.97F
JOLIET*        PTSUNNY   58  45  60 S3        29.96F
WAUKEGAN       CLOUDY    61  45  55 SW10      29.92F
DUPAGE AIRPORT PTSUNNY   59  46  62 S7        29.94F
KANKAKEE*      PTSUNNY   60  45  58 S7        29.97F
WHEELING       CLOUDY    62  45  53 S7        29.94F
MORRIS*        PTSUNNY   58  41  53 S6        29.95F
ROMEOVILLE*    PTSUNNY   59  44  57 S7        29.96S
NORTHERLY ISL    N/A     62  41  46 S6          N/A
$$

LMZ740>746-211400-
SOUTHERN LAKE MICHIGAN

STATION/POSITION SKY/WX   TEMP    WIND        PRES    VSBY  WAVE
                          AIR SEA DIR/SP/G                  HT/PER
                          (F)     (DEG/KT/KT) (MB)    (MI)  (FT/S)
WAUKEGAN HARBOR            57     180/  7/  8 1014.9F
HARRISON CRIB              59     180/ 15/ 16   N/A
BURNHAM HARBOR             63     200/  5/ 10   N/A
CALUMET HARBOR             61     190/  7/  9 1015.1F
MICHIGAN CITY              62     160/ 11/ 17   N/A
$$

ILZ025>027-034>036-040-047-049-050-058-095>099-211400-
WEST-CENTRAL ILLINOIS

CITY           SKY/WX    TMP DP  RH WIND       PRES   REMARKS
QUINCY         CLOUDY    63  50  62 SW6       29.99R
GALESBURG*     CLOUDY    60  51  72 SW7       29.96S
MACOMB*        CLOUDY    63  49  60 SW7       30.00R
JACKSONVILLE*  CLOUDY    65  48  53 SW5       30.00S
PITTSFIELD*    CLOUDY    65  50  59 SW3       30.00S
$$

ILZ028>032-037-038-041>044-048-051>054-059>061-211400-
CENTRAL ILLINOIS

CITY           SKY/WX    TMP DP  RH WIND       PRES   REMARKS
PONTIAC        PTSUNNY   61  46  59 S3        29.97S
BLOOMINGTON    CLOUDY    60  46  59 SW10      29.99S
DECATUR        PTSUNNY   63  48  58 SW10      30.00S
PEORIA         CLOUDY    60  48  64 S6        29.97S
LACON*         CLOUDY    63  47  57 SW7       29.95S
LINCOLN*       PTSUNNY   64  48  57 CALM      29.98S
SPRINGFIELD    PTSUNNY   64  46  52 SW6       29.99S
TAYLORVILLE    PTSUNNY   61  46  59 S7        30.01S
$$

ILZ033-039-045-046-055>057-062-063-211400-
EAST-CENTRAL ILLINOIS

CITY           SKY/WX    TMP DP  RH WIND       PRES   REMARKS
CHAMPAIGN      CLOUDY    61  45  55 S10       30.00S
RANTOUL*       PTSUNNY   63  46  53 CALM      30.01R
MATTOON        CLOUDY    61  46  57 S8        30.01S
PARIS*         PTSUNNY   62  46  55 S9        30.03S
$$

ILZ079-100>102-211400-
SOUTHWEST ILLINOIS

CITY           SKY/WX    TMP DP  RH WIND       PRES   REMARKS
ALTON          CLOUDY    63  50  63 S8        30.02R
BELLEVILLE     LGT RAIN  60  52  75 S8        30.03R
CAHOKIA*       CLOUDY    66  49  54 SW6       30.02R
SPARTA*        CLOUDY    63  50  63 S10       30.04S
$$

ILZ064>066-069>071-074>076-080>082-084>086-088>090-092>094-211400-
SOUTH-CENTRAL ILLINOIS

CITY           SKY/WX    TMP DP  RH WIND       PRES   REMARKS
CARBONDALE     CLOUDY    60  51  72 S6        30.05S
CAIRO*         CLOUDY    63  55  76 CALM      30.06F
MARION         PTSUNNY   64  50  59 S6        30.06R
MT. VERNON     PTSUNNY   61  46  59 SW3       30.04F
CENTRALIA*       N/A     61  47  60 CALM      30.03S
SALEM*         PTSUNNY   64  51  63 S5        30.03S
METROPOLIS*    PTSUNNY   60  50  71 CALM      30.06F
$$

ILZ067-068-072-073-078-083-087-091-211400-
SOUTHEAST ILLINOIS

CITY           SKY/WX    TMP DP  RH WIND       PRES   REMARKS
FAIRFIELD*     PTSUNNY   61  52  72 CALM      30.04F
HARRISBURG*    PTSUNNY   60  53  78 CALM      30.06F
ROBINSON*      PTSUNNY   61  50  67 S7        30.05F
CARMI*         PTSUNNY   59  52  75 S7        30.05S
$$

ABBREVIATIONS USED IN REMARKS
   TC - TEMPERATURE IN CELSIUS
  WCI - WIND CHILL INDEX
   HX - HEAT INDEX
  VSB - VISIBILITY
$$




USA.gov is the U.S. government's official web portal to all federal, state and local government web resources and services.